Content
SEND FEEDBACK

Daily
Averages
Monthly
Summary
Mexico

SAN MARTINIANO, QUINTANA ROO


Home > North America > Mexico > Quintana Roo
Elevation: 49 feet     Latitude: 20 47N     Longitude: 087 16W

WEATHER
 
SELECT A DAY
Number of Records: 201,891;   Date Range: 2/21/06 - 10/20/14
 
SHARE

PRINT THIS DATA

[ ← Previous Day ]
WEATHER ALMANAC - OCTOBER 23, 2013
[ Next Day → ]
[ °C ]   °F
Weather ElementAverageHighLow
Temperature74.3 °F82.4 °F (1:55 pm)66.2 °F (11:35 pm)
Dewpoint30.5 °F64.4 °F (10:15 am) (7:00 pm)
Humidity47.6 %73 % (10:15 am)16 % (4:15 pm)
Barometer29.93 in30.05 in (11:15 pm)29.85 in (3:15 am)
Wind Speed5.4 mph15 mph (4:15 pm)
Wind Gust19.6 mph (4:15 pm)
Weather ElementAverage
Visibility9.3 mi
Wind DirectionW (272.4 °)

Weather ElementTotal
Precipitation0.03 in
Cooling Degree Days9.3 (Base 65)
Growing Degree Days24.3 (Base 50)
Averaged from 71 records on October 23, 2013
WEATHER CONDITIONS BREAKOUT
WIND DIRECTION BREAKOUT
WEATHER BY HOUR - OCTOBER 23, 2013
[ °C ]   °F
Local TimeTemperatureDewpointHumidityBarometerVisibilityWind DirectionWind SpeedGust SpeedPrecipitationEventsConditions
12:35 AM73.4 °F0.0 °F29.86 in10.0 miSSW (200°)3.5 mphClear
12:55 AM73.4 °F0.0 °F29.86 in10.0 miSW (220°)4.6 mphClear
1:15 AM73.4 °F0.0 °F29.87 in10.0 miWSW (240°)4.6 mphClear
1:35 AM73.4 °F0.0 °F29.87 in10.0 miWSW (250°)4.6 mphScattered Clouds
1:55 AM73.4 °F0.0 °F29.87 in7.0 miWSW (240°)4.6 mphOvercast
2:15 AM75.2 °F0.0 °F29.87 in5.0 miSW (230°)4.6 mphHaze
2:35 AM75.2 °F0.0 °F29.86 in5.0 miSW (220°)3.5 mphHaze
2:55 AM75.2 °F0.0 °F29.86 in4.0 miSSW (210°)3.5 mphHaze
3:15 AM75.2 °F0.0 °F29.85 in3.0 miSW (220°)3.5 mphOvercast
3:35 AM73.4 °F0.0 °F29.85 in3.0 miSW (230°)4.6 mphOvercast
3:55 AM73.4 °F0.0 °F29.85 in5.0 miSSW (210°)3.5 mphHaze
4:15 AM75.2 °F0.0 °F29.85 in7.0 miCalmMostly Cloudy
4:35 AM75.2 °F0.0 °F29.85 in10.0 miWSW (250°)4.6 mphOvercast
4:55 AM75.2 °F0.0 °F29.85 in10.0 miWNW (290°)3.5 mphOvercast
5:15 AM75.2 °F0.0 °F29.86 in10.0 miWNW (300°)5.8 mph0.01 inOvercast
5:35 AM73.4 °F0.0 °F29.87 in7.0 miNNW (340°)5.8 mph0.01 inDrizzle
5:55 AM73.4 °F0.0 °F29.87 in10.0 miCalm0.01 inOvercast
6:15 AM73.4 °F0.0 °F29.88 in7.0 miCalmRainRain
6:35 AM73.4 °F0.0 °F29.88 in10.0 miCalmMostly Cloudy
6:55 AM73.4 °F0.0 °F29.90 in10.0 miNNW (330°)3.5 mphMostly Cloudy
7:15 AM73.4 °F0.0 °F29.90 in10.0 miNNW (340°)3.5 mphMostly Cloudy
7:35 AM73.4 °F0.0 °F29.90 in10.0 miNNW (340°)3.5 mphMostly Cloudy
7:55 AM73.4 °F0.0 °F29.91 in10.0 miNNW (330°)6.9 mphScattered Clouds
8:15 AM73.4 °F0.0 °F29.91 in10.0 miNNW (340°)5.8 mphClear
8:35 AM71.6 °F0.0 °F29.93 in10.0 miNorth (350°)4.6 mphScattered Clouds
8:55 AM71.6 °F0.0 °F29.94 in10.0 miNorth (350°)4.6 mphMostly Cloudy
9:15 AM71.6 °F0.0 °F29.94 in10.0 miNorth (350°)5.8 mphOvercast
9:35 AM73.4 °F0.0 °F29.96 in10.0 miNNW (340°)8.1 mph16.1 mphOvercast
9:55 AM73.4 °F0.0 °F29.96 in10.0 miNNW (340°)8.1 mphOvercast
10:15 AM73.4 °F64.4 °F73 %29.97 in10.0 miNNW (340°)8.1 mphOvercast
10:35 AM73.4 °F64.4 °F73 %29.97 in10.0 miNNW (340°)8.1 mphOvercast
10:55 AM73.4 °F62.6 °F69 %29.96 in10.0 miNorth (350°)6.9 mphOvercast
11:15 AM75.2 °F60.8 °F61 %29.97 in10.0 miNorth (350°)9.2 mphMostly Cloudy
11:35 AM77.0 °F60.8 °F57 %29.96 in10.0 miNNW (340°)10.4 mphMostly Cloudy
11:55 AM77.0 °F60.8 °F57 %29.96 in10.0 miNorth (10°)10.4 mph17.3 mphOvercast
12:15 PM75.2 °F60.8 °F61 %29.96 in10.0 miNorth (350°)5.8 mphOvercast
12:35 PM77.0 °F60.8 °F57 %29.96 in10.0 miNorth (360°)6.9 mphOvercast
12:55 PM77.0 °F60.8 °F57 %29.95 in10.0 miNNW (330°)4.6 mphOvercast
1:15 PM77.0 °F59.0 °F54 %29.95 in10.0 miNorth (350°)3.5 mphMostly Cloudy
1:35 PM80.6 °F59.0 °F48 %29.94 in10.0 miNW (310°)10.4 mphScattered Clouds
1:55 PM82.4 °F57.2 °F42 %29.93 in10.0 miNW (310°)11.5 mphClear
2:15 PM80.6 °F53.6 °F39 %29.93 in10.0 miNNW (340°)6.9 mphClear
2:35 PM80.6 °F50.0 °F34 %29.92 in10.0 miNW (320°)10.4 mphClear
2:55 PM82.4 °F51.8 °F35 %29.91 in10.0 miNorth (350°)6.9 mphClear
3:15 PM82.4 °F48.2 °F30 %29.91 in10.0 miNW (310°)11.5 mph17.3 mphClear
3:35 PM82.4 °F44.6 °F26 %29.91 in10.0 miNW (310°)11.5 mph16.1 mphClear
3:55 PM82.4 °F41.0 °F23 %29.91 in10.0 miNW (320°)10.4 mph18.4 mphClear
4:15 PM82.4 °F32.0 °F16 %29.93 in10.0 miNW (310°)15.0 mph19.6 mphClear
4:35 PM80.6 °F32.0 °F17 %29.93 in10.0 miNNW (330°)5.8 mphClear
4:55 PM80.6 °F33.8 °F18 %29.93 in10.0 miNW (320°)11.5 mph16.1 mphClear
5:15 PM78.8 °F33.8 °F20 %29.94 in10.0 miNW (310°)10.4 mphClear
5:35 PM77.0 °F37.4 °F24 %29.94 in10.0 miNW (320°)5.8 mphClear
5:55 PM77.0 °F41.0 °F28 %29.95 in10.0 miNNW (330°)5.8 mph9.2 mphClear
6:15 PM75.2 °F44.6 °F34 %29.95 in10.0 miNW (310°)5.8 mphClear
6:35 PM73.4 °F46.4 °F38 %29.96 in10.0 miNW (320°)4.6 mphClear
6:55 PM73.4 °F44.6 °F36 %29.96 in10.0 miNW (320°)5.8 mphClear
7:15 PM71.6 °F46.4 °F41 %29.96 in10.0 miNW (310°)3.5 mphClear
7:35 PM71.6 °F48.2 °F43 %29.97 in10.0 miCalmClear
7:55 PM69.8 °F50.0 °F49 %29.98 in10.0 miNNW (330°)3.5 mphClear
8:15 PM69.8 °F51.8 °F53 %29.99 in10.0 miNW (320°)3.5 mphClear
8:35 PM68.0 °F51.8 °F56 %29.99 in10.0 miCalmClear
8:55 PM69.8 °F53.6 °F56 %29.99 in10.0 miNNW (340°)3.5 mphClear
9:15 PM68.0 °F53.6 °F60 %29.99 in10.0 miCalmClear
9:35 PM68.0 °F53.6 °F60 %30.00 in10.0 miNorth (350°)3.5 mphClear
9:55 PM68.0 °F55.4 °F64 %30.02 in10.0 miNNW (330°)4.6 mphClear
10:15 PM68.0 °F55.4 °F64 %30.02 in10.0 miNNW (340°)3.5 mphClear
10:35 PM68.0 °F55.4 °F64 %30.03 in10.0 miCalmClear
10:55 PM68.0 °F55.4 °F64 %30.04 in10.0 miNorth (360°)4.6 mphClear
11:15 PM68.0 °F55.4 °F64 %30.05 in10.0 miNNW (340°)3.5 mphClear
11:35 PM66.2 °F55.4 °F68 %30.05 in10.0 miNorth (350°)3.5 mphClear
11:55 PM66.2 °F55.4 °F68 %30.05 in10.0 miNorth (350°)4.6 mphClear
Hourly data recorded from KPCM, located miles away from San Martiniano, Quintana Roo







STORIES FROM OUR PARTNERS